TimeCDT,TemperatureF,Dew PointF,Humidity,Sea Level PressureIn,VisibilityMPH,Wind Direction,Wind SpeedMPH,Gust SpeedMPH,PrecipitationIn,Events,Conditions,WindDirDegrees,DateUTC
12:15 AM,39.2,33.8,81,29.61,10.0,WNW,13.8,-,N/A,,Mostly Cloudy,290,2012-10-09 05:15:00
12:35 AM,39.2,33.8,81,29.61,10.0,WNW,13.8,20.7,N/A,,Scattered Clouds,290,2012-10-09 05:35:00
12:55 AM,37.4,32.0,81,29.61,10.0,West,12.7,-,N/A,,Clear,280,2012-10-09 05:55:00
1:15 AM,37.4,32.0,81,29.61,10.0,West,9.2,-,N/A,,Clear,280,2012-10-09 06:15:00
1:35 AM,37.4,32.0,81,29.61,10.0,West,12.7,-,N/A,,Partly Cloudy,270,2012-10-09 06:35:00
1:55 AM,37.4,33.8,87,29.61,10.0,NW,9.2,16.1,N/A,,Mostly Cloudy,310,2012-10-09 06:55:00
2:15 AM,37.4,33.8,87,29.61,10.0,WNW,9.2,-,N/A,,Mostly Cloudy,290,2012-10-09 07:15:00
3:15 AM,37.4,35.6,93,29.61,10.0,West,12.7,-,N/A,,Overcast,280,2012-10-09 08:15:00
3:35 AM,37.4,35.6,93,29.61,5.0,West,10.4,-,N/A,Rain,Light Rain,280,2012-10-09 08:35:00
3:55 AM,37.4,35.6,93,29.61,10.0,WNW,10.4,-,N/A,,Overcast,290,2012-10-09 08:55:00
4:15 AM,37.4,35.6,93,29.62,8.0,WNW,15.0,-,N/A,Rain,Light Rain,300,2012-10-09 09:15:00
4:35 AM,35.6,35.6,100,29.64,4.0,NNW,15.0,21.9,0.01,,Overcast,340,2012-10-09 09:35:00
4:55 AM,33.8,33.8,100,29.65,3.0,NNW,13.8,19.6,0.01,,Overcast,340,2012-10-09 09:55:00
5:15 AM,32.0,32.0,100,29.66,1.5,NNW,11.5,17.3,0.05,Snow,Light Snow,340,2012-10-09 10:15:00
5:35 AM,32.0,32.0,100,29.68,1.0,North,13.8,20.7,0.11,Snow,Light Snow,350,2012-10-09 10:35:00
5:55 AM,32.0,32.0,100,29.69,1.2,North,15.0,21.9,0.16,Snow,Light Snow,350,2012-10-09 10:55:00
6:15 AM,32.0,32.0,100,29.70,2.0,North,18.4,23.0,0.01,Snow,Light Snow,350,2012-10-09 11:15:00
6:35 AM,33.8,33.8,100,29.72,3.0,North,16.1,23.0,0.01,,Overcast,350,2012-10-09 11:35:00
6:55 AM,33.8,33.8,100,29.73,7.0,North,18.4,25.3,0.02,Rain,Light Rain,350,2012-10-09 11:55:00
7:15 AM,35.6,33.8,93,29.74,9.0,NNW,18.4,25.3,N/A,Rain,Light Rain,340,2012-10-09 12:15:00
7:35 AM,35.6,33.8,93,29.76,9.0,NNW,13.8,21.9,N/A,,Overcast,340,2012-10-09 12:35:00
7:55 AM,35.6,33.8,93,29.77,10.0,NNW,16.1,23.0,N/A,,Overcast,340,2012-10-09 12:55:00
8:15 AM,35.6,33.8,93,29.78,10.0,NNW,17.3,23.0,N/A,,Overcast,340,2012-10-09 13:15:00
8:35 AM,35.6,33.8,93,29.79,10.0,NNW,15.0,21.9,N/A,,Overcast,340,2012-10-09 13:35:00
8:55 AM,35.6,33.8,93,29.80,7.0,NNW,13.8,23.0,N/A,Rain,Light Rain,340,2012-10-09 13:55:00
9:15 AM,35.6,32.0,87,29.81,2.5,NNW,18.4,23.0,N/A,Rain,Light Rain,340,2012-10-09 14:15:00
9:35 AM,35.6,32.0,87,29.82,10.0,NNW,19.6,24.2,N/A,,Overcast,340,2012-10-09 14:35:00
9:55 AM,35.6,32.0,87,29.83,10.0,NNW,16.1,24.2,N/A,,Overcast,340,2012-10-09 14:55:00
10:15 AM,37.4,32.0,81,29.84,10.0,NNW,16.1,26.5,N/A,,Overcast,340,2012-10-09 15:15:00
10:35 AM,37.4,33.8,87,29.85,10.0,NNW,16.1,26.5,N/A,,Overcast,330,2012-10-09 15:35:00
10:55 AM,37.4,33.8,87,29.86,10.0,NNW,15.0,24.2,N/A,,Overcast,340,2012-10-09 15:55:00
11:15 AM,37.4,32.0,81,29.87,10.0,NNW,21.9,25.3,N/A,,Overcast,330,2012-10-09 16:15:00
11:35 AM,37.4,32.0,81,29.88,10.0,NNW,18.4,24.2,N/A,,Overcast,340,2012-10-09 16:35:00
11:55 AM,37.4,32.0,81,29.88,10.0,NNW,17.3,23.0,N/A,,Mostly Cloudy,330,2012-10-09 16:55:00
12:15 PM,37.4,32.0,81,29.89,5.0,NNW,17.3,23.0,N/A,Rain,Light Rain,330,2012-10-09 17:15:00
12:35 PM,37.4,33.8,87,29.89,10.0,NNW,16.1,23.0,N/A,,Mostly Cloudy,330,2012-10-09 17:35:00
12:55 PM,35.6,32.0,87,29.90,0.8,NNW,9.2,-,0.07,Snow,Light Snow,340,2012-10-09 17:55:00
1:15 PM,37.4,33.8,87,29.90,10.0,NW,13.8,20.7,N/A,,Scattered Clouds,320,2012-10-09 18:15:00
1:35 PM,39.2,32.0,75,29.90,10.0,NW,18.4,-,N/A,,Scattered Clouds,320,2012-10-09 18:35:00
1:55 PM,37.4,32.0,81,29.90,4.0,NNW,15.0,23.0,N/A,Rain,Light Rain,330,2012-10-09 18:55:00
2:15 PM,41.0,32.0,70,29.90,10.0,NW,17.3,24.2,N/A,,Scattered Clouds,320,2012-10-09 19:15:00
2:35 PM,37.4,32.0,81,29.91,6.0,NW,15.0,19.6,N/A,,Mostly Cloudy,320,2012-10-09 19:35:00
2:55 PM,39.2,32.0,75,29.92,10.0,NW,20.7,26.5,N/A,,Scattered Clouds,310,2012-10-09 19:55:00
3:15 PM,39.2,32.0,75,29.92,10.0,NW,16.1,-,N/A,,Scattered Clouds,310,2012-10-09 20:15:00
3:35 PM,39.2,28.4,65,29.92,10.0,NW,13.8,21.9,N/A,,Scattered Clouds,320,2012-10-09 20:35:00
3:55 PM,39.2,28.4,65,29.93,10.0,NW,18.4,25.3,N/A,,Mostly Cloudy,320,2012-10-09 20:55:00
4:15 PM,41.0,28.4,61,29.93,10.0,NNW,13.8,19.6,N/A,,Mostly Cloudy,330,2012-10-09 21:15:00
4:35 PM,41.0,28.4,61,29.93,10.0,NW,11.5,18.4,N/A,,Scattered Clouds,320,2012-10-09 21:35:00
4:55 PM,41.0,28.4,61,29.93,10.0,NNW,15.0,18.4,N/A,,Scattered Clouds,330,2012-10-09 21:55:00
5:15 PM,41.0,26.6,57,29.94,10.0,North,16.1,19.6,N/A,,Partly Cloudy,350,2012-10-09 22:15:00
5:35 PM,39.2,28.4,65,29.94,10.0,NNW,9.2,-,N/A,,Partly Cloudy,340,2012-10-09 22:35:00
5:55 PM,39.2,28.4,65,29.95,10.0,NNW,10.4,-,N/A,,Partly Cloudy,340,2012-10-09 22:55:00
6:15 PM,37.4,28.4,70,29.96,10.0,NNW,5.8,-,N/A,,Partly Cloudy,340,2012-10-09 23:15:00
6:35 PM,37.4,30.2,75,29.96,10.0,NNW,5.8,-,N/A,,Scattered Clouds,330,2012-10-09 23:35:00
6:55 PM,37.4,32.0,81,29.97,10.0,WNW,8.1,-,N/A,,Mostly Cloudy,290,2012-10-09 23:55:00
7:15 PM,37.4,30.2,75,29.97,10.0,NW,11.5,18.4,N/A,,Scattered Clouds,310,2012-10-10 00:15:00
7:35 PM,35.6,32.0,87,29.98,10.0,NW,8.1,-,N/A,,Partly Cloudy,310,2012-10-10 00:35:00
7:55 PM,35.6,32.0,87,29.98,10.0,WNW,6.9,-,N/A,,Mostly Cloudy,300,2012-10-10 00:55:00
8:15 PM,35.6,30.2,81,29.98,10.0,NW,6.9,-,N/A,,Overcast,310,2012-10-10 01:15:00
8:35 PM,35.6,30.2,81,29.98,10.0,NW,6.9,-,N/A,,Overcast,310,2012-10-10 01:35:00
8:55 PM,35.6,30.2,81,29.99,10.0,NW,8.1,-,N/A,,Unknown,310,2012-10-10 01:55:00
9:15 PM,35.6,30.2,81,29.99,10.0,NW,6.9,-,N/A,,Mostly Cloudy,310,2012-10-10 02:15:00
9:35 PM,35.6,30.2,81,29.99,10.0,WNW,5.8,-,N/A,,Overcast,300,2012-10-10 02:35:00
9:55 PM,35.6,32.0,87,29.99,10.0,WNW,4.6,-,N/A,,Overcast,300,2012-10-10 02:55:00
10:15 PM,33.8,32.0,93,29.99,10.0,West,4.6,-,N/A,,Overcast,270,2012-10-10 03:15:00
10:35 PM,33.8,32.0,93,29.99,10.0,West,5.8,-,N/A,,Overcast,280,2012-10-10 03:35:00
10:55 PM,35.6,32.0,87,29.99,10.0,WNW,4.6,-,N/A,,Overcast,300,2012-10-10 03:55:00
11:15 PM,33.8,32.0,93,29.99,10.0,WNW,4.6,-,N/A,,Overcast,290,2012-10-10 04:15:00
11:35 PM,32.0,30.2,93,29.99,10.0,West,6.9,-,N/A,,Partly Cloudy,260,2012-10-10 04:35:00
11:55 PM,32.0,30.2,93,29.99,10.0,West,5.8,-,N/A,,Clear,270,2012-10-10 04:55:00